Regional Weather Roundup
Issued by NWS Sioux Falls, SD

Home | Current Version | Previous Version | Graphics & Text | Print | Product List | Glossary On
Versions: 1 2 3 4 5 6 7 8 9 10 11 12 13 14 15 16 17 18 19 20 21 22 23 24 25 26 27 28 29 30 31 32 33 34 35 36 37 38 39 40 41 42 43 44 45 46 47 48 49 50
000
ASUS43 KFSD 050810
RWRFSD

WEATHER ROUNDUP FOR SE SOUTH DAKOTA/SW MINNESOTA/NW IOWA
NATIONAL WEATHER SERVICE SIOUX FALLS SD
300 AM CDT TUE MAY 05 2015

NOTE: "FAIR" INDICATES FEW OR NO CLOUDS BELOW 12,000 FEET WITH NO
SIGNIFICANT WEATHER AND OR OBSTRUCTIONS TO VISIBILITY.


SDZ038>040-050-052>070-050900-
SOUTHEAST SOUTH DAKOTA

CITY           SKY/WX    TMP DP  RH WIND       PRES   REMARKS
BROOKINGS      CLEAR     52  28  40 NE6       30.15F
CHAMBERLAIN    CLEAR     45  35  67 E5        30.10S
HURON          CLEAR     48  30  49 SE7       30.12F
MADISON        FAIR      41  25  52 E7        30.14F
MITCHELL       CLEAR     45  35  68 NE8       30.12S
SIOUX FALLS    CLEAR     45  32  60 NE3       30.12F
WINNER         FAIR      48  35  60 SE7       30.09S
YANKTON        CLOUDY    52  45  76 NE6       30.10S
$$

MNZ071-072-080-081-089-090-097-098-050900-
SOUTHWEST MINNESOTA

CITY           SKY/WX    TMP DP  RH WIND       PRES   REMARKS
FAIRMONT       CLOUDY    55  30  38 N7        30.14S
JACKSON        MOCLDY    54  30  40 NE10      30.14F
LUVERNE        CLEAR     52  32  46 NE6       30.14S
MARSHALL       PTCLDY    45  23  42 CALM      30.16F
MONTEVIDEO     CLEAR     45  28  53 E5        30.18F
PIPESTONE      CLEAR     50  28  43 E5        30.14S
REDWOOD FALLS  PTCLDY    55  27  34 E9        30.16F
TRACY          PTCLDY    49  32  52 CALM      30.16F
WINDOM         MOCLDY    50  32  50 NE8       30.14F
WORTHINGTON    PTCLDY    46  28  49 NE8       30.14F
$$

IAZ001>003-012>014-020>022-031-032-NEZ013-014-SDZ071-050900-
NORTHWEST IOWA

CITY           SKY/WX    TMP DP  RH WIND       PRES   REMARKS
CHEROKEE       CLOUDY    57  41  54 NE6       30.10F
DENISON        LGT RAIN  55  55 100 E5        30.07S
ESTHERVILLE    CLOUDY    52  35  52 NE8       30.12F
LE MARS        CLOUDY    54  43  66 N8        30.11S
ORANGE CITY    CLOUDY    54  37  54 E6        30.11S
SHELDON        PTCLDY    50  37  62 NE8       30.11S
SIOUX CITY     CLOUDY    58  50  75 NE7       30.09F
SPENCER        MOCLDY    52  41  66 NE7       30.12F
STORM LAKE     CLOUDY    57  45  62 NE12      30.10F
$$

ABBREVIATIONS USED IN REMARKS
   TC - TEMPERATURE IN CELSIUS
  WCI - WIND CHILL INDEX
   HX - HEAT INDEX
  VSB - VISIBILITY




USA.gov is the U.S. government's official web portal to all federal, state and local government web resources and services.